Location: Kott?ru
(16.6209°N, 80.6208°E)
Time: 01:26:58
(UTC+00:00)

ARGOS - Pass Details

Date: 18 September 2020
Orbit: 821 x 834 km, 98.4° (Epoch: 26 October)

Event Time Altitude Azimuth Distance (km) Brightness Sun altitude
Exits shadow 14:07:33 46° 128° (SE) 1,083 3.3 -22.5°
Maximum altitude 14:08:51 60° 76° (ENE) 931 3.1 -22.8°
Drops below altitude 10° 14:14:06 10° 357° (N) 2,414 5.7 -24.0°
Sets 14:16:28 0° 354° (N) 3,348 6.5 -24.6°
